{"data":{"norad_id":59898,"intl_designator":"2024-100P","name":"STARLINK-31953","alt_names":[],"object_type":"PAYLOAD","status":"ACTIVE","operator":null,"country":"US","launch_date":"2024-05-28","launch_site_code":"AFETR","launch_vehicle":null,"mission":null,"orbit_class":"UNKNOWN","rcs_meters":null,"size_class":null,"mass_kg":null,"dimensions":null,"purposes":["comms"],"wikipedia_slug":null,"has_3d_model":false,"image_url":null,"decayed_at":null,"tle_current":{"epoch":"2026-05-25T02:37:36.285600Z","epoch_age_seconds":61620,"freshness":"FRESH","line1":"1 59898U 24100P   26145.10944775  .00000011  00000+0  99164-5 0  9996","line2":"2 59898  43.0036  50.4184 0000809 259.7235 100.3526 15.27580576112882","mean_motion":15.27580576,"eccentricity":8.09e-5,"inclination_deg":43.0036,"raan_deg":50.4184,"arg_perigee_deg":259.7235,"mean_anomaly_deg":100.3526,"bstar":9.9164e-6,"rev_number":11288,"period_min":94.266713168785,"perigee_km":482.49230147334,"apogee_km":483.60244110462,"semimajor_km":6861.184371289,"source":"CELESTRAK","updated_at":"2026-05-25T13:38:19.118899Z"}}}